Tiempo cada hora Gogolevka

Hoy, 27 Noviembre, Viernes

Tiempo Temperatura Precipitaciones Viento Presión Humedad
00:00 -15°C° 0 mm 3 mps 763 mmHg 88%
01:00 -14°C° 0 mm 2 mps 763 mmHg 89%
02:00 -15°C° 0 mm 2 mps 763 mmHg 90%
03:00 -15°C° 0 mm 2 mps 764 mmHg 90%
04:00 -16°C° 0 mm 2 mps 763 mmHg 90%
05:00 -16°C° 0 mm 2 mps 763 mmHg 90%
06:00 -16°C° 0 mm 2 mps 763 mmHg 90%
07:00 -16°C° 0 mm 2 mps 763 mmHg 88%
08:00 -15°C° 0 mm 2 mps 763 mmHg 86%
09:00 -12°C° 0 mm 1 mps 763 mmHg 83%
10:00 -13°C° 0 mm 2 mps 763 mmHg 80%
11:00 -13°C° 0 mm 3 mps 762 mmHg 77%
12:00 -12°C° 0 mm 3 mps 762 mmHg 74%
13:00 -12°C° 0 mm 3 mps 761 mmHg 75%
14:00 -12°C° 0 mm 3 mps 761 mmHg 76%
15:00 -12°C° 0 mm 3 mps 761 mmHg 77%
16:00 -10°C° 0 mm 2 mps 761 mmHg 81%
17:00 -12°C° 0 mm 2 mps 761 mmHg 85%
18:00 -13°C° 0 mm 2 mps 761 mmHg 89%
19:00 -14°C° 0 mm 2 mps 761 mmHg 89%
20:00 -14°C° 0 mm 2 mps 761 mmHg 90%
21:00 -14°C° 0 mm 2 mps 761 mmHg 91%
22:00 -15°C° 0 mm 2 mps 760 mmHg 91%
23:00 -15°C° 0 mm 2 mps 760 mmHg 90%

Mañana, 28 Noviembre, Sábado

Tiempo Temperatura Precipitaciones Viento Presión Humedad
00:00 -15°C° 0 mm 2 mps 760 mmHg 90%
01:00 -16°C° 0 mm 2 mps 760 mmHg 90%
02:00 -16°C° 0 mm 2 mps 760 mmHg 90%
03:00 -16°C° 0 mm 2 mps 760 mmHg 90%
04:00 -16°C° 0 mm 2 mps 760 mmHg 90%
05:00 -17°C° 0 mm 2 mps 760 mmHg 90%
06:00 -17°C° 0 mm 2 mps 760 mmHg 90%
07:00 -16°C° 0 mm 2 mps 760 mmHg 88%
08:00 -17°C° 0 mm 3 mps 760 mmHg 86%
09:00 -16°C° 0 mm 3 mps 760 mmHg 84%
10:00 -15°C° 0 mm 3 mps 760 mmHg 82%
11:00 -14°C° 0 mm 3 mps 760 mmHg 80%
12:00 -13°C° 0 mm 3 mps 760 mmHg 78%
13:00 -13°C° 0 mm 3 mps 759 mmHg 79%
14:00 -12°C° 0 mm 3 mps 759 mmHg 80%
15:00 -12°C° 0 mm 3 mps 759 mmHg 81%
16:00 -13°C° 0 mm 3 mps 759 mmHg 84%
17:00 -13°C° 0 mm 2 mps 760 mmHg 87%
18:00 -14°C° 0 mm 2 mps 760 mmHg 90%
19:00 -14°C° 0 mm 2 mps 760 mmHg 90%
20:00 -15°C° 0 mm 2 mps 760 mmHg 91%
21:00 -15°C° 0 mm 2 mps 760 mmHg 91%
22:00 -15°C° 0 mm 2 mps 760 mmHg 91%
23:00 -16°C° 0 mm 2 mps 760 mmHg 90%

Pasado mañana, 29 Noviembre, Domingo

Tiempo Temperatura Precipitaciones Viento Presión Humedad
00:00 -16°C° 0 mm 2 mps 760 mmHg 90%
01:00 -16°C° 0 mm 2 mps 760 mmHg 90%
02:00 -16°C° 0 mm 2 mps 761 mmHg 90%
03:00 -17°C° 0 mm 2 mps 761 mmHg 90%
04:00 -17°C° 0 mm 2 mps 761 mmHg 91%
05:00 -17°C° 0 mm 2 mps 760 mmHg 91%
06:00 -17°C° 0 mm 2 mps 760 mmHg 92%
07:00 -17°C° 0 mm 2 mps 761 mmHg 90%
08:00 -16°C° 0 mm 2 mps 761 mmHg 88%
09:00 -15°C° 0 mm 2 mps 761 mmHg 87%
10:00 -14°C° 0 mm 2 mps 761 mmHg 84%
11:00 -14°C° 0 mm 3 mps 761 mmHg 81%
12:00 -13°C° 0 mm 3 mps 760 mmHg 78%
13:00 -13°C° 0 mm 3 mps 760 mmHg 79%
14:00 -13°C° 0 mm 3 mps 760 mmHg 80%
15:00 -12°C° 0 mm 3 mps 760 mmHg 81%
16:00 -13°C° 0 mm 3 mps 760 mmHg 84%
17:00 -13°C° 0 mm 2 mps 761 mmHg 88%
18:00 -14°C° 0 mm 2 mps 761 mmHg 91%
19:00 -15°C° 0 mm 2 mps 761 mmHg 91%
20:00 -15°C° 0 mm 2 mps 761 mmHg 91%
21:00 -15°C° 0 mm 2 mps 762 mmHg 91%
22:00 -16°C° 0 mm 2 mps 762 mmHg 91%
23:00 -16°C° 0 mm 2 mps 762 mmHg 91%

30 Noviembre, Lunes

Tiempo Temperatura Precipitaciones Viento Presión Humedad
00:00 -16°C° 0 mm 2 mps 762 mmHg 91%
01:00 -17°C° 0 mm 2 mps 762 mmHg 91%
02:00 -17°C° 0 mm 2 mps 762 mmHg 90%
03:00 -17°C° 0 mm 2 mps 762 mmHg 90%
04:00 -17°C° 0 mm 2 mps 763 mmHg 91%
05:00 -17°C° 0 mm 2 mps 763 mmHg 91%
06:00 -18°C° 0 mm 2 mps 763 mmHg 91%
07:00 -17°C° 0 mm 2 mps 763 mmHg 89%
08:00 -17°C° 0 mm 2 mps 763 mmHg 87%
09:00 -16°C° 0 mm 2 mps 763 mmHg 85%
10:00 -16°C° 0 mm 3 mps 763 mmHg 83%
11:00 -15°C° 0 mm 3 mps 763 mmHg 81%
12:00 -14°C° 0 mm 3 mps 763 mmHg 79%
13:00 -13°C° 0 mm 3 mps 763 mmHg 80%
14:00 -13°C° 0 mm 3 mps 762 mmHg 80%
15:00 -13°C° 0 mm 3 mps 762 mmHg 81%
16:00 -13°C° 0 mm 3 mps 763 mmHg 82%
17:00 -14°C° 0 mm 3 mps 763 mmHg 84%
18:00 -15°C° 0 mm 3 mps 763 mmHg 86%
19:00 -15°C° 0 mm 3 mps 763 mmHg 86%
20:00 -15°C° 0 mm 3 mps 763 mmHg 86%
21:00 -15°C° 0 mm 3 mps 763 mmHg 86%
22:00 -15°C° 0 mm 3 mps 764 mmHg 87%
23:00 -16°C° 0 mm 3 mps 764 mmHg 87%

1 Diciembre, Martes

Tiempo Temperatura Precipitaciones Viento Presión Humedad
00:00 -16°C° 0 mm 3 mps 764 mmHg 88%
01:00 -17°C° 0 mm 3 mps 764 mmHg 88%
02:00 -17°C° 0 mm 3 mps 765 mmHg 87%
03:00 -17°C° 0 mm 3 mps 765 mmHg 87%
04:00 -17°C° 0 mm 3 mps 765 mmHg 88%
05:00 -17°C° 0 mm 3 mps 765 mmHg 89%
06:00 -18°C° 0 mm 3 mps 765 mmHg 90%
07:00 -17°C° 0 mm 3 mps 765 mmHg 89%
08:00 -17°C° 0 mm 3 mps 766 mmHg 87%
09:00 -17°C° 0 mm 3 mps 766 mmHg 86%
10:00 -16°C° 0 mm 3 mps 766 mmHg 82%
11:00 -15°C° 0 mm 3 mps 766 mmHg 78%
12:00 -14°C° 0 mm 4 mps 766 mmHg 74%
13:00 -13°C° 0 mm 3 mps 766 mmHg 76%
14:00 -13°C° 0 mm 3 mps 765 mmHg 77%
15:00 -13°C° 0 mm 3 mps 765 mmHg 79%
16:00 -14°C° 0 mm 3 mps 765 mmHg 82%
17:00 -14°C° 0 mm 2 mps 765 mmHg 86%
18:00 -15°C° 0 mm 2 mps 766 mmHg 89%
19:00 -15°C° 0 mm 2 mps 766 mmHg 90%
20:00 -15°C° 0 mm 2 mps 766 mmHg 90%
21:00 -16°C° 0 mm 2 mps 766 mmHg 91%
22:00 -16°C° 0 mm 2 mps 765 mmHg 91%
23:00 -16°C° 0 mm 2 mps 765 mmHg 90%

2 Diciembre, Miércoles

Tiempo Temperatura Precipitaciones Viento Presión Humedad
00:00 -16°C° 0 mm 2 mps 765 mmHg 90%
01:00 -17°C° 0 mm 2 mps 765 mmHg 90%
02:00 -17°C° 0 mm 2 mps 765 mmHg 90%
03:00 -17°C° 0 mm 2 mps 765 mmHg 90%
04:00 -17°C° 0 mm 2 mps 766 mmHg 91%
05:00 -17°C° 0 mm 2 mps 766 mmHg 91%
06:00 -17°C° 0 mm 2 mps 766 mmHg 92%
07:00 -17°C° 0 mm 2 mps 766 mmHg 90%
08:00 -16°C° 0 mm 2 mps 766 mmHg 88%
09:00 -16°C° 0 mm 2 mps 766 mmHg 86%
10:00 -15°C° 0 mm 2 mps 766 mmHg 84%
11:00 -14°C° 0 mm 3 mps 765 mmHg 81%
12:00 -13°C° 0 mm 3 mps 765 mmHg 78%
13:00 -13°C° 0 mm 3 mps 765 mmHg 79%
14:00 -13°C° 0 mm 3 mps 765 mmHg 80%
15:00 -12°C° 0 mm 3 mps 764 mmHg 82%
16:00 -12°C° 0 mm 2 mps 764 mmHg 84%
17:00 -13°C° 0 mm 2 mps 765 mmHg 87%
18:00 -14°C° 0 mm 2 mps 765 mmHg 89%
19:00 -15°C° 0 mm 2 mps 765 mmHg 90%
20:00 -15°C° 0 mm 2 mps 764 mmHg 90%
21:00 -15°C° 0 mm 2 mps 764 mmHg 90%
22:00 -15°C° 0 mm 2 mps 764 mmHg 91%
23:00 -15°C° 0 mm 2 mps 764 mmHg 92%
Mostrar más

Necesitamos Su Consentimiento

Meteoprog y nuestros Proveedores de Servicios pueden almacenar y acceder a sus datos personales como cookies, identificadores de dispositivo u otras tecnologías similares de su dispositivo y procesar dichos datos para personalizar contenido y anuncios, además de ofrecer funciones de redes sociales y analizar el tráfico.

  • Almacenar y/o acceder a información en su dispositivo

    Se puede almacenar o acceder a cookies, identificadores de dispositivo u otra información de su dispositivo para los fines anteriormente indicados.

  • Anuncios y contenido personalizados, medición de anuncios y contenido, percepciones del público, y desarrollo de productos

    Los anuncios y el contenido pueden personalizarse en base a su perfil. Se pueden añadir más datos para personalizar mejor los anuncios y contenidos. Se puede medir el rendimiento de los anuncios y contenidos. Se puede obtener la percepción sobre el público que ha visto los anuncios y contenidos. Dichos datos pueden usarse para desarrollar o mejorar la experiencia del usuario, sistemas y software.

Al hacer clic en ‘Estoy De Acuerdo’ usted permitirá el uso de las cookies, identificadores de dispositivo, balizas web u otras tecnologías similares indicadas. Su configuración puede cambiarse desde el navegador de su dispositivo.

Para ciertos fines, los intereses legítimos pueden ser considerados por encima del consentimiento. Puede leer más sobre ello en nuestra Política de Privacidad y Cookies.